Lapse_Rate
6.4 6.3 6.2 6.7 6.5 7.0 7.1 7.1 7.3 7.3 7.2 6.7 6.8 6.5 6.8 6.3 6.5 7.1 7.0 7.0 6.9 7.0 6.8 6.4 6.3 6.6 6.8 7.0 7.0 6.8 6.6 6.6 6.5 6.3 6.1 6.4 6.6 6.4 6.1 6.1 6.0 6.0 6.0 6.1
6.3 6.3 6.4 6.5 6.5 7.0 7.5 7.4 7.6 8.0 7.3 7.1 6.6 6.5 6.4 6.4 6.2 6.9 7.0 6.9 6.7 6.5 6.1 5.8 6.6 7.0 6.8 6.7 6.8 7.0 6.9 6.8 6.6 6.5 6.3 5.9 6.0 6.3 6.3 6.2 6.1 6.0 6.0 6.0
6.2 5.9 6.1 6.3 6.4 7.0 7.3 7.3 7.7 7.8 6.3 6.5 6.6 6.5 6.5 6.4 6.4 6.8 7.4 7.1 6.8 6.4 6.5 6.5 6.6 6.6 6.5 6.7 6.8 6.8 6.8 6.7 6.8 6.7 6.5 6.4 6.0 6.2 6.6 6.6 6.3 6.2 5.9 5.6
6.6 6.3 6.3 5.9 6.4 7.1 7.2 7.4 7.7 7.3 6.5 6.6 6.9 6.9 7.4 6.8 6.8 6.6 6.6 6.6 6.3 6.3 6.3 6.3 6.4 6.4 6.4 6.4 6.5 6.6 6.6 6.7 6.6 6.5 6.5 6.5 6.4 5.9 6.1 6.4 6.3 6.3 6.3 6.3
5.9 5.9 6.0 5.9 6.6 6.9 7.4 7.4 7.3 6.7 7.2 6.6 6.7 6.7 7.1 6.7 6.3 6.3 6.2 6.4 6.6 6.6 6.4 6.2 6.0 6.1 6.1 6.1 6.2 6.2 6.3 6.4 6.3 6.4 6.4 6.4 6.3 6.1 5.7 5.6 5.8 5.9 6.1 6.3
5.9 6.2 6.3 6.2 6.3 6.5 6.6 6.9 6.7 6.6 6.8 6.4 7.1 7.4 6.4 6.9 7.1 6.3 5.9 6.0 6.0 6.1 6.0 5.9 5.7 5.7 5.7 5.8 5.9 6.0 6.1 6.2 6.3 6.3 6.3 6.3 6.2 6.2 6.0 5.8 5.6 5.8 6.0 6.2
6.0 6.1 6.2 6.3 6.2 6.3 6.5 6.8 6.5 6.6 6.3 6.2 7.3 7.1 7.3 7.0 6.2 6.1 5.9 5.7 5.7 5.7 5.6 5.6 5.6 5.5 5.6 5.6 5.7 5.8 5.9 6.0 6.0 6.2 6.2 6.1 6.0 5.9 5.9 5.9 5.9 5.9 5.9 6.0
6.1 5.8 6.2 6.1 6.0 6.3 6.5 7.1 7.3 6.7 6.0 5.9 6.5 6.6 7.3 6.3 6.3 5.8 5.7 5.9 5.6 5.4 5.5 5.4 5.4 5.5 5.6 5.7 5.8 5.9 6.0 6.0 6.0 6.0 6.0 5.9 5.9 6.0 6.1 5.9 5.8 5.7 5.7 5.6
5.8 5.5 5.9 6.2 6.1 6.3 6.2 6.5 6.9 7.1 7.1 6.6 6.8 6.6 6.4 6.3 6.3 6.1 5.8 5.6 5.5 5.5 5.5 5.5 5.6 5.7 5.7 5.8 5.9 5.9 6.0 6.1 6.1 6.0 6.1 6.1 6.0 5.9 5.8 5.6 5.5 5.6 5.4 5.4
6.0 5.5 5.5 5.8 6.1 6.2 6.4 6.5 6.7 6.9 5.9 6.5 6.8 6.9 7.1 6.0 6.4 5.9 5.6 5.3 5.5 5.5 5.5 5.6 5.7 5.8 5.8 5.8 5.9 6.0 6.1 6.0 6.0 6.1 6.2 6.2 6.1 6.0 5.9 5.8 5.7 5.6 5.7 5.8
6.1 6.0 5.5 5.8 5.9 6.1 6.1 6.1 6.6 6.9 7.0 6.4 6.1 6.7 6.9 7.2 6.6 5.7 5.1 5.6 5.6 5.6 5.8 5.8 5.8 5.8 5.8 5.9 6.0 6.1 5.9 6.0 6.1 6.1 6.0 6.1 6.1 6.0 5.9 5.8 5.9 6.1 6.2 6.1
6.3 6.1 5.9 5.9 5.9 6.0 5.9 6.1 6.4 6.4 6.8 6.7 6.6 6.4 6.7 6.5 5.9 5.6 5.5 5.6 5.8 5.9 6.0 5.8 5.7 5.8 5.9 5.9 6.0 5.9 5.9 5.9 5.9 5.9 6.1 6.1 6.0 5.9 5.8 5.7 5.9 5.9 6.0 5.8
6.5 6.1 5.7 5.7 5.9 6.0 6.1 6.2 6.3 6.4 6.4 6.6 6.2 6.3 6.2 6.0 5.6 5.5 5.6 5.7 5.9 6.0 5.9 5.9 5.7 5.7 5.8 5.8 5.8 6.0 6.0 5.9 6.1 6.1 6.0 5.9 5.8 5.7 5.5 5.6 5.7 5.8 5.9 6.0
6.5 6.2 6.2 6.2 6.4 6.4 6.2 6.3 6.2 6.2 6.2 6.5 6.7 6.5 6.0 5.9 5.7 5.7 5.9 6.0 6.0 5.9 5.8 5.7 5.8 5.8 5.9 5.8 5.7 6.0 6.1 6.1 6.1 6.0 5.9 5.9 5.8 5.8 5.5 5.5 5.7 6.0 6.1 6.0
6.3 6.4 6.4 6.4 6.6 6.5 6.3 6.2 5.7 5.8 6.1 6.1 6.5 6.5 6.2 6.0 5.9 5.7 6.1 6.0 5.8 5.8 5.9 5.9 5.9 5.9 6.0 5.9 6.1 6.3 6.2 6.1 6.0 5.9 5.9 6.0 5.9 5.8 5.5 5.6 5.6 5.9 5.9 5.7
6.4 6.4 6.3 6.3 6.3 6.3 6.2 6.1 5.9 5.8 6.0 6.0 6.1 6.2 5.9 6.0 6.1 6.2 6.2 6.1 6.0 6.0 6.0 6.0 6.1 6.2 6.4 6.4 6.2 6.2 6.0 5.9 5.9 5.9 6.0 5.9 5.8 5.7 5.7 5.8 5.5 5.7 5.8 5.8
6.3 6.3 6.4 6.3 6.2 6.1 6.1 6.8 6.5 6.5 6.6 6.5 6.1 6.5 6.1 6.2 6.4 6.4 6.3 6.1 6.0 6.0 6.1 6.2 6.3 6.4 6.3 6.1 5.9 5.8 5.9 6.0 5.8 5.9 5.9 5.8 5.7 5.6 5.6 5.8 5.5 5.7 5.8 5.7
6.2 6.2 6.3 6.3 6.3 5.3 6.8 6.8 6.8 6.6 6.5 6.6 6.4 6.0 5.8 6.1 6.3 6.3 6.3 6.2 6.2 6.2 6.2 6.3 6.2 6.2 6.1 6.0 5.6 5.7 5.9 5.9 5.8 5.6 5.5 5.7 5.8 5.6 5.6 5.6 5.5 5.8 5.6 5.4
6.1 6.0 6.1 6.1 6.3 6.8 6.7 6.8 6.5 6.5 6.6 6.6 6.5 6.1 6.0 6.1 6.2 6.3 6.3 6.2 6.2 6.2 6.1 6.2 6.3 6.2 6.0 5.6 5.7 5.7 5.9 5.8 5.5 5.4 5.5 5.7 5.7 5.8 5.7 5.5 5.6 5.8 5.5 5.3
6.0 5.9 5.8 5.8 6.1 6.3 6.3 6.4 6.4 6.0 6.0 6.2 6.1 5.9 5.9 6.1 6.1 6.2 6.4 6.3 6.1 6.0 6.1 6.1 6.2 6.0 5.8 5.6 5.8 6.0 6.1 6.1 5.9 5.7 5.8 5.8 5.7 5.8 5.6 5.4 5.6 5.5 5.4 5.3
5.7 5.6 5.7 5.7 5.6 6.1 6.2 6.3 6.1 6.0 5.9 5.9 5.8 5.9 6.2 6.3 6.3 6.3 6.4 6.3 6.1 5.9 5.8 5.9 5.8 6.0 6.1 6.1 5.9 6.0 6.1 6.3 6.3 6.2 6.1 6.0 5.8 5.6 5.6 5.6 5.6 5.6 5.6 5.6
6.0 5.9 5.9 5.7 5.7 5.4 6.1 6.0 5.9 6.1 6.0 6.0 5.9 6.0 6.0 6.1 6.3 6.4 6.3 6.3 6.2 6.0 5.9 5.9 5.6 6.0 6.1 6.0 5.9 5.8 6.0 6.1 6.2 6.2 6.1 6.0 5.9 5.7 5.7 5.6 5.6 5.6 5.6 5.6
6.1 6.1 6.1 6.0 5.9 6.0 5.9 6.1 6.0 5.9 5.9 5.8 5.8 6.0 6.1 6.2 6.3 6.2 6.4 6.4 6.4 6.2 5.9 5.5 5.3 5.7 5.9 5.9 5.9 5.9 6.0 6.1 5.9 6.0 6.1 6.1 6.0 5.8 5.7 5.7 5.7 5.7 5.7 5.8
6.3 6.1 6.1 6.2 6.2 6.1 6.1 6.0 5.9 5.7 5.8 5.8 5.9 6.0 6.1 6.2 6.1 6.1 6.3 6.3 6.3 6.1 5.9 5.6 5.2 5.1 5.7 5.8 5.9 6.0 6.0 6.0 6.0 6.0 6.0 5.9 5.9 5.8 5.8 5.7 5.7 5.7 5.8 5.8
6.3 6.3 6.2 6.2 6.0 5.8 5.7 5.8 5.8 5.7 5.8 5.7 5.7 5.8 6.0 6.1 6.0 6.1 6.2 6.4 6.2 6.0 6.0 5.7 5.3 5.2 5.3 5.5 5.8 5.9 5.9 5.8 5.9 5.9 5.9 5.9 5.8 5.8 5.8 5.7 5.6 5.7 5.6 5.6
6.5 6.5 6.1 6.0 6.0 5.8 5.8 5.9 5.9 5.8 5.7 5.8 5.8 5.8 5.9 6.1 6.0 6.0 6.2 6.2 6.2 6.0 6.0 5.6 5.2 5.4 5.0 5.1 5.5 5.7 5.7 5.8 5.9 5.9 5.9 5.8 5.8 5.8 5.8 5.8 5.7 5.6 5.5 5.6
Wind_Speed
16 8 17 27 18 9 8 11 14 13 8 14 15 12 12 7 6 6 7 7 7 7 6 5 5 6 7 7 7 6 5 5 3 2 2 5 6 5 5 7 15 14 13 15
9 14 11 14 14 15 8 11 18 4 10 7 7 11 9 9 8 8 8 8 7 5 2 8 7 6 4 5 6 6 6 6 4 2 3 2 4 5 7 5 11 15 12 9
12 8 12 16 16 17 9 8 10 7 5 2 3 7 10 5 1 3 4 5 6 5 5 7 7 6 6 7 7 7 7 7 6 6 4 4 0 2 3 3 5 11 16 15
5 4 13 9 13 15 10 6 3 11 7 3 8 4 13 9 5 5 7 6 6 5 7 6 6 6 6 4 4 6 4 3 5 6 4 4 3 3 3 5 7 8 13 11
3 12 16 5 9 9 7 7 8 7 6 2 8 2 3 10 7 7 6 6 6 6 7 7 6 2 6 4 3 4 7 5 1 3 4 4 5 4 4 4 4 5 5 10
6 3 4 6 8 9 7 9 9 3 1 2 7 6 5 8 11 8 7 8 7 6 6 6 5 4 5 5 5 5 6 6 6 1 3 4 5 6 5 5 4 4 3 4
3 4 4 3 9 5 10 8 4 3 2 3 1 4 6 11 11 8 8 9 7 6 6 4 6 4 5 5 7 7 7 7 7 7 6 5 4 4 5 6 4 5 3 3
3 2 1 3 2 5 6 7 4 5 4 4 2 4 4 11 10 9 8 7 6 4 5 5 4 4 4 5 6 7 7 6 7 7 7 6 6 3 3 4 4 4 3 4
4 2 1 2 3 3 3 1 2 2 2 4 5 3 5 10 9 7 8 8 7 6 5 5 3 5 4 5 5 5 6 6 7 7 7 7 7 7 6 8 6 5 6 7
3 5 2 2 3 8 3 2 1 1 3 3 4 6 4 10 10 8 8 8 7 6 6 4 3 4 3 4 4 5 6 6 7 7 6 5 7 7 7 6 7 7 6 8
8 2 4 5 3 4 2 2 2 0 2 1 4 4 1 15 10 8 7 6 5 5 5 4 3 3 2 4 4 5 6 7 7 7 6 7 7 7 8 7 8 8 7 6
4 5 3 4 5 6 6 3 3 1 3 1 2 3 4 10 8 7 6 6 6 6 6 3 2 1 3 5 5 5 6 6 6 6 6 7 7 7 7 7 7 7 7 7
4 2 3 2 3 1 1 3 1 6 2 3 1 2 3 9 9 7 6 5 6 6 6 2 1 1 5 5 5 5 5 5 5 6 7 7 6 6 6 7 7 6 6 8
3 2 3 3 3 4 3 5 5 4 2 3 3 5 4 7 6 7 7 6 6 6 5 3 2 2 5 5 4 4 5 6 6 6 6 6 6 6 6 5 6 8 7 7
2 3 3 4 6 4 2 5 7 5 6 4 4 8 8 8 5 6 5 7 5 6 5 4 2 2 3 4 5 5 6 6 6 6 6 5 6 6 6 6 5 5 7 7
2 2 2 1 4 5 3 6 8 9 10 8 6 4 2 5 6 4 3 6 4 4 5 5 3 2 3 5 4 5 5 5 6 6 6 6 6 6 6 6 8 8 10 10
4 4 2 1 1 4 6 12 12 7 7 10 8 6 3 3 3 3 4 5 4 4 4 5 4 4 5 4 4 6 5 5 5 5 6 6 6 7 7 7 8 9 9 9
4 3 2 1 1 1 3 3 2 11 9 7 5 5 3 0 3 3 4 5 6 5 4 5 4 4 4 3 6 6 5 5 6 5 6 5 6 7 6 6 8 7 7 7
3 4 2 2 3 6 6 3 2 6 8 8 6 4 4 4 1 4 7 6 6 6 5 5 6 5 3 5 4 6 5 4 5 6 5 5 6 7 6 6 7 6 7 7
2 2 2 1 2 3 3 4 0 2 1 8 7 7 4 3 0 2 6 6 5 5 5 5 6 4 4 3 6 6 5 5 5 6 5 5 5 7 5 6 6 4 5 4
2 2 4 4 2 5 6 5 3 2 3 5 5 5 5 2 3 4 6 5 5 4 6 5 5 5 4 4 6 7 6 5 5 6 5 5 6 5 5 5 4 4 2 2
5 5 3 3 3 6 4 4 2 3 3 5 6 5 4 3 3 5 6 7 6 5 5 4 5 5 4 6 7 6 5 4 5 5 5 5 4 4 4 5 3 4 4 4
3 3 3 6 3 2 2 7 4 3 6 3 4 3 2 1 0 3 5 7 6 6 5 5 6 6 4 5 5 6 5 5 5 5 5 4 5 5 4 3 2 1 2 3
3 1 1 3 1 7 6 5 6 4 3 3 2 1 1 2 1 2 5 6 6 6 5 5 8 7 7 6 6 5 6 6 5 5 5 5 5 3 3 2 2 2 3 2
1 5 4 5 5 3 5 7 7 6 4 4 3 1 1 2 3 4 3 6 7 7 6 6 8 8 7 8 7 7 7 6 5 6 5 5 3 4 4 4 3 3 3 3
4 5 4 3 4 1 4 7 6 4 3 4 3 3 3 3 5 4 4 4 7 8 6 6 6 9 9 8 8 8 7 6 6 5 4 4 3 3 4 4 3 7 6 6
Wind_Direction
176 172 194 193 200 201 187 199 243 201 166 189 215 212 233 218 203 228 246 251 252 256 240 224 81 30 13 350 333 315 309 286 244 250 216 165 193 205 198 211 255 272 230 208
160 207 196 182 199 221 220 204 217 226 143 176 201 233 229 226 197 211 237 246 255 280 290 61 48 25 356 329 351 342 317 308 288 246 253 182 161 198 204 195 225 260 287 255
155 178 177 197 206 211 199 238 202 157 123 328 312 244 222 232 354 305 314 288 307 349 59 60 66 58 56 43 14 352 337 333 329 336 338 332 288 147 164 216 227 234 248 267
104 159 158 168 232 212 201 222 186 121 125 208 179 255 210 188 196 205 220 213 183 105 81 69 73 63 75 46 5 341 333 317 321 326 321 304 270 273 239 200 207 212 213 213
120 154 164 159 223 202 221 125 99 123 188 24 195 269 198 132 193 193 159 115 109 99 121 121 107 67 101 77 351 335 330 336 64 343 313 299 292 287 288 293 267 229 205 193
43 17 140 163 246 305 124 98 83 55 112 246 214 200 195 178 188 162 144 152 158 130 110 101 99 58 59 35 9 347 330 323 338 309 292 280 272 284 303 305 310 278 247 229
42 19 352 61 156 175 151 135 128 165 198 233 35 171 265 187 145 150 151 152 145 153 113 98 77 44 46 23 16 359 356 341 337 339 338 322 289 282 285 290 293 306 301 280
136 182 347 50 267 177 165 179 163 184 185 153 13 226 281 113 104 100 105 109 120 156 122 106 95 72 39 46 34 8 356 356 4 4 352 336 332 348 339 353 340 328 324 324
148 125 85 197 343 354 178 174 354 357 258 104 187 136 356 116 122 146 156 182 173 138 129 103 69 79 37 48 44 13 12 17 23 4 9 8 17 20 9 2 358 3 0 356
150 107 85 147 69 22 273 209 135 16 147 213 208 171 213 178 162 179 161 182 148 160 141 102 65 73 48 61 47 31 26 31 27 12 5 18 18 11 3 4 9 8 3 351
146 59 139 151 169 166 139 196 280 352 150 236 150 248 87 176 155 174 148 117 132 146 96 67 51 57 77 71 56 48 28 36 23 9 6 32 22 20 23 18 10 1 359 355
1 115 127 85 106 145 232 215 165 130 224 209 177 280 313 152 142 123 141 159 151 112 101 79 58 32 95 76 61 51 38 37 23 11 27 35 29 26 27 12 10 5 358 13
170 134 107 114 172 95 223 234 24 92 38 230 97 246 74 125 139 159 172 154 134 123 101 90 19 110 97 81 60 45 48 35 31 34 39 39 30 32 28 16 6 8 14 27
360 89 75 152 123 107 179 213 170 108 130 196 223 138 153 137 174 194 160 142 122 118 128 102 15 16 102 83 79 47 48 39 34 50 44 40 36 32 29 23 21 20 26 39
51 101 79 27 99 100 228 198 185 157 229 162 329 158 172 184 184 129 115 128 130 147 143 129 105 13 97 91 65 50 52 42 31 52 54 49 49 40 38 36 41 42 44 48
97 114 96 264 163 181 228 238 204 210 227 265 289 319 294 105 115 134 181 125 159 147 127 122 133 115 84 74 44 65 60 34 36 51 50 48 52 52 52 40 49 51 53 44
135 127 138 155 167 279 274 224 208 185 189 202 213 221 154 140 114 153 138 145 140 102 101 129 134 110 79 74 62 65 61 51 52 46 47 57 60 65 51 48 56 51 56 57
154 149 117 178 228 275 208 37 210 203 201 212 215 240 92 42 92 132 129 147 126 120 133 135 127 110 98 82 77 83 65 65 60 55 57 73 82 77 68 60 64 58 58 58
245 169 180 188 199 274 146 168 167 163 231 192 199 214 256 102 86 229 132 85 100 94 83 89 96 98 76 87 97 96 81 87 95 80 82 83 85 83 74 74 69 62 70 70
323 357 118 164 276 267 95 140 141 122 163 164 163 214 150 88 318 24 101 115 116 111 105 128 129 125 158 136 113 122 113 115 94 92 89 91 92 91 91 85 80 75 81 80
181 195 200 221 293 302 133 128 159 228 150 52 137 105 95 111 151 147 123 103 110 119 121 109 150 138 112 108 98 88 101 109 97 97 99 94 83 85 95 99 101 106 134 60
176 179 184 190 213 263 114 122 240 148 100 86 81 76 87 76 83 157 168 149 150 147 128 164 126 124 107 98 114 129 121 111 111 115 119 118 130 134 139 143 187 180 165 134
214 189 193 182 209 106 67 113 89 101 124 109 110 117 137 167 204 174 178 160 167 165 171 166 137 124 131 142 141 139 133 140 150 142 144 156 162 161 171 158 180 152 116 110
221 191 185 46 356 162 158 147 138 119 127 115 93 95 245 260 296 262 193 171 165 166 186 179 136 161 180 166 146 147 152 168 178 170 171 148 134 132 120 91 37 62 44 52
88 137 201 252 260 137 167 161 144 115 111 96 72 53 308 310 275 256 243 184 172 169 188 181 168 163 179 170 159 165 175 181 201 164 153 144 153 130 93 72 37 92 60 70
194 184 194 240 19 19 85 109 110 137 137 85 38 346 323 256 263 279 259 231 170 169 170 180 187 166 168 170 174 174 184 199 177 157 166 171 164 163 148 138 77 75 89 72